Location: Goettingen
(51.5300°N, 9.9433°E)
Time: 07:53:05
(UTC+02:00)

ISS - Pass Details

Date: 11 May 2021
Orbit: 417 x 422 km, 51.6° (Epoch: 18 May)

Event Time Altitude Azimuth Distance (km) Brightness Sun altitude
Exits shadow 03:37:17 10° 276° (W) 1,537 -1.2 -14.1°
Reaches altitude 10° 03:37:22 10° 276° (W) 1,505 -1.2 -14.1°
Maximum altitude 03:40:45 90° 304° (NW) 426 -3.8 -13.8°
Drops below altitude 10° 03:44:08 10° 97° (E) 1,505 -0.6 -13.5°
Sets 03:46:14 0° 97° (E) 2,370 0.5 -13.3°
